Hillsdale, MI

11:42 PM EDT on October 20, 2019 (GMT -0400)
Hillsdale Municipal

Weather History for KJYM - August, 2019

Change the Weather History Date:

Wednesday, August 21, 2019

  Actual Average Record
Temperature  
Mean Temperature 72 °F -  
Max Temperature 81 °F 78 °F 93 °F (1955)
Min Temperature 63 °F 54 °F 37 °F (1950)
Cooling Degree Days 7    
Growing Degree Days 22 (Base 50)    
Moisture  
Dew Point 66 °F    
Average Humidity 78    
Maximum Humidity 96    
Minimum Humidity 60    
Precipitation  
Precipitation 0.00 in - - ()
Sea Level Pressure  
Sea Level Pressure 29.95 in    
Wind  
Wind Speed 5 mph ()    
Max Wind Speed 13 mph    
Max Gust Speed 18 mph    
Visibility 9.5 miles    
Events      
Averages and records for this station are not official NWS values.
T = Trace of Precipitation, MM = Missing Value Source: Averaged Metar Reports

Daily Weather History Graph

Daily Weather History Graph

Search for Another Location

Airport or City:

Astronomy

Aug. 21, 2019 Rise Set
Actual Time 6:52 AM EDT 8:29 PM EDT
Civil Twilight 6:22 AM EDT 8:59 PM EDT
Nautical Twilight 5:47 AM EDT 9:34 PM EDT
Astronomical Twilight 5:08 AM EDT 10:12 PM EDT
Moon 11:41 PM EDT 12:32 PM EDT
Length of Visible Light 14h 36m
Length of Day
13h 37m
Waning Gibbous, 69% of the Moon is Illuminated
Aug 21
Waning Gibbous
Aug 23
Last Quarter
Aug 30
New
Sep 5
First Quarter
Sep 14
Full

Hourly Weather History & Observations

Time (EDT) Temp. Heat Index Dew Point Humidity Pressure Visibility Wind Dir Wind Speed Gust Speed Precip Events Conditions
12:15 AM 69.8 °F - 65.5 °F 86% 29.96 in 10.0 mi South 6.9 mph - N/A   Mostly Cloudy
12:35 AM 69.4 °F - 65.7 °F 88% 29.97 in 10.0 mi South 8.1 mph - N/A   Mostly Cloudy
12:36 AM 69.4 °F - 65.7 °F 88% 29.97 in 10.0 mi South 6.9 mph - N/A   Mostly Cloudy
12:55 AM 69.3 °F - 65.7 °F 88% 29.98 in 10.0 mi NNW 10.4 mph - N/A   Mostly Cloudy
1:17 AM 69.6 °F - 66.0 °F 88% 29.99 in 10.0 mi NW 4.6 mph - N/A   Overcast
1:36 AM 68.9 °F - 65.8 °F 90% 29.98 in 10.0 mi NW 4.6 mph - N/A   Overcast
1:55 AM 68.7 °F - 66.0 °F 91% 29.98 in 10.0 mi WNW 3.5 mph - N/A   Overcast
1:56 AM 68.7 °F - 66.0 °F 91% 29.98 in 10.0 mi WNW 4.6 mph - N/A   Overcast
2:15 AM 68.0 °F - 65.7 °F 92% 29.97 in 10.0 mi Calm Calm - N/A   Overcast
2:16 AM 68.0 °F - 65.7 °F 92% 29.97 in 10.0 mi Calm Calm - N/A   Overcast
2:39 AM 67.8 °F - 65.5 °F 92% 29.96 in 10.0 mi Calm Calm - N/A   Overcast
2:57 AM 66.9 °F - 64.9 °F 93% 29.96 in 10.0 mi Calm Calm - N/A   Scattered Clouds
3:15 AM 66.7 °F - 64.9 °F 94% 29.96 in 10.0 mi Calm Calm - N/A   Clear
3:35 AM 66.2 °F - 64.6 °F 94% 29.96 in 10.0 mi Calm Calm - N/A   Clear
4:00 AM 64.8 °F - 63.7 °F 96% 29.95 in 7.0 mi Calm Calm - N/A   Clear
4:18 AM 65.7 °F - 64.4 °F 96% 29.95 in 10.0 mi Calm Calm - N/A   Clear
4:36 AM 64.4 °F - 63.0 °F 95% 29.95 in 10.0 mi West 4.6 mph - N/A   Clear
4:55 AM 65.3 °F - 63.5 °F 94% 29.95 in 10.0 mi NW 3.5 mph - N/A   Clear
5:15 AM 66.2 °F - 63.9 °F 92% 29.95 in 10.0 mi WNW 5.8 mph - N/A   Clear
5:16 AM 66.2 °F - 63.9 °F 92% 29.95 in 10.0 mi WNW 5.8 mph - N/A   Clear
5:39 AM 65.8 °F - 63.5 °F 92% 29.95 in 10.0 mi WNW 5.8 mph - N/A   Clear
5:57 AM 65.3 °F - 63.5 °F 94% 29.94 in 10.0 mi WNW 4.6 mph - N/A   Clear
6:15 AM 65.3 °F - 63.1 °F 93% 29.94 in 10.0 mi WNW 4.6 mph - N/A   Clear
6:35 AM 64.2 °F - 62.6 °F 94% 29.95 in 7.0 mi WNW 3.5 mph - N/A   Clear
6:36 AM 64.2 °F - 62.6 °F 94% 29.95 in 7.0 mi WNW 3.5 mph - N/A   Clear
6:55 AM 64.8 °F - 63.1 °F 94% 29.94 in 7.0 mi Calm Calm - N/A   Clear
7:00 AM 64.4 °F - 62.8 °F 94% 29.94 in 7.0 mi WNW 3.5 mph - N/A   Clear
7:18 AM 63.9 °F - 62.4 °F 95% 29.94 in 5.0 mi Calm Calm - N/A   Clear
7:36 AM 63.9 °F - 62.6 °F 96% 29.93 in 4.0 mi Calm Calm - N/A   Clear
7:55 AM 65.8 °F - 64.4 °F 95% 29.94 in 5.0 mi Calm Calm - N/A   Clear
8:15 AM 67.3 °F - 65.1 °F 93% 29.94 in 5.0 mi Calm Calm - N/A   Clear
8:16 AM 67.3 °F - 65.1 °F 93% 29.94 in 5.0 mi Calm Calm - N/A   Clear
8:39 AM 68.9 °F - 65.7 °F 89% 29.93 in 7.0 mi Calm Calm - N/A   Clear
8:57 AM 70.3 °F - 66.4 °F 87% 29.93 in 10.0 mi Calm Calm - N/A   Clear
9:15 AM 71.2 °F - 66.0 °F 84% 29.94 in 10.0 mi Calm Calm - N/A   Clear
9:35 AM 73.8 °F - 67.3 °F 80% 29.97 in 10.0 mi West 8.1 mph - N/A   Clear
9:55 AM 75.0 °F - 66.4 °F 74% 29.96 in 10.0 mi NW 3.5 mph - N/A   Clear
10:00 AM 75.4 °F - 65.7 °F 72% 29.96 in 10.0 mi NW 5.8 mph - N/A   Clear
10:18 AM 76.6 °F - 65.7 °F 69% 29.96 in 10.0 mi Calm Calm - N/A   Clear
10:36 AM 77.5 °F - 65.7 °F 67% 29.97 in 10.0 mi West 3.5 mph - N/A   Clear
10:55 AM 78.8 °F - 66.4 °F 66% 29.96 in 10.0 mi NW 5.8 mph - N/A   Clear
11:15 AM 79.3 °F - 66.9 °F 66% 29.97 in 10.0 mi West 4.6 mph - N/A   Clear
11:16 AM 79.3 °F - 67.3 °F 66% 29.97 in 10.0 mi West 5.8 mph - N/A   Clear
11:39 AM 79.0 °F - 66.4 °F 65% 29.98 in 10.0 mi West 9.2 mph - N/A   Clear
11:57 AM 79.7 °F - 66.7 °F 64% 29.97 in 10.0 mi WNW 8.1 mph - N/A   Clear
12:15 PM 79.9 °F - 66.2 °F 63% 29.96 in 10.0 mi West 5.8 mph - N/A   Clear
12:35 PM 80.6 °F 82.7 °F 66.2 °F 61% 29.97 in 10.0 mi West 8.1 mph - N/A   Clear
12:36 PM 80.8 °F 83.2 °F 66.9 °F 63% 29.97 in 10.0 mi West 8.1 mph - N/A   Clear
12:55 PM 80.2 °F 82.1 °F 65.3 °F 60% 29.97 in 10.0 mi West 9.2 mph - N/A   Clear
12:56 PM 80.4 °F 82.3 °F 65.5 °F 60% 29.97 in 10.0 mi West 10.4 mph - N/A   Clear
1:19 PM 80.8 °F 83.1 °F 66.6 °F 62% 29.97 in 10.0 mi West 11.5 mph - N/A   Scattered Clouds
1:37 PM 81.1 °F 83.4 °F 66.6 °F 61% 29.97 in 10.0 mi WSW 6.9 mph - N/A   Scattered Clouds
1:55 PM 81.3 °F 83.5 °F 66.4 °F 60% 29.97 in 10.0 mi WSW 6.9 mph - N/A   Scattered Clouds
2:15 PM 81.0 °F 83.3 °F 66.7 °F 62% 29.96 in 10.0 mi WSW 10.4 mph - N/A   Scattered Clouds
2:16 PM 81.0 °F 83.3 °F 66.7 °F 62% 29.96 in 10.0 mi WSW 8.1 mph - N/A   Scattered Clouds
2:35 PM 81.7 °F 84.0 °F 66.6 °F 60% 29.96 in 10.0 mi West 11.5 mph 16.1 mph N/A   Scattered Clouds
2:40 PM 81.5 °F 83.7 °F 66.4 °F 60% 29.96 in 10.0 mi West 8.1 mph 16.1 mph N/A   Scattered Clouds
2:58 PM 81.0 °F 83.2 °F 66.2 °F 61% 29.96 in 10.0 mi WSW 11.5 mph 17.3 mph N/A   Scattered Clouds
3:16 PM 81.3 °F 84.0 °F 67.5 °F 63% 29.96 in 10.0 mi WSW 11.5 mph 16.1 mph N/A   Scattered Clouds
3:35 PM 80.6 °F 82.7 °F 66.2 °F 61% 29.96 in 10.0 mi WSW 10.4 mph - N/A   Scattered Clouds
3:36 PM 80.4 °F 82.6 °F 66.2 °F 62% 29.96 in 10.0 mi West 11.5 mph - N/A   Scattered Clouds
3:55 PM 81.1 °F 83.2 °F 66.0 °F 60% 29.96 in 10.0 mi WSW 8.1 mph - N/A   Scattered Clouds
3:56 PM 80.8 °F 82.8 °F 65.8 °F 60% 29.96 in 10.0 mi WSW 8.1 mph - N/A   Scattered Clouds
4:18 PM 80.8 °F 83.1 °F 66.7 °F 62% 29.96 in 10.0 mi West 9.2 mph 16.1 mph N/A   Clear
4:37 PM 80.4 °F 82.7 °F 66.9 °F 63% 29.96 in 10.0 mi WSW 9.2 mph - N/A   Clear
4:55 PM 80.2 °F 82.8 °F 67.8 °F 66% 29.95 in 10.0 mi West 9.2 mph - N/A   Clear
5:15 PM 80.8 °F 83.5 °F 68.0 °F 65% 29.94 in 10.0 mi WSW 10.4 mph 17.3 mph N/A   Clear
5:16 PM 80.8 °F 83.5 °F 67.8 °F 65% 29.94 in 10.0 mi WSW 9.2 mph 17.3 mph N/A   Clear
5:35 PM 80.6 °F 83.5 °F 68.5 °F 67% 29.94 in 10.0 mi West 6.9 mph - N/A   Scattered Clouds
5:40 PM 80.8 °F 83.8 °F 68.7 °F 67% 29.94 in 10.0 mi WSW 8.1 mph - N/A   Scattered Clouds
5:57 PM 80.4 °F 83.0 °F 67.5 °F 65% 29.94 in 10.0 mi WSW 12.7 mph 18.4 mph N/A   Scattered Clouds
6:16 PM 80.4 °F 83.0 °F 67.8 °F 65% 29.94 in 10.0 mi West 8.1 mph 11.5 mph N/A   Scattered Clouds
6:35 PM 79.7 °F - 67.6 °F 66% 29.94 in 10.0 mi West 6.9 mph 16.1 mph N/A   Scattered Clouds
6:36 PM 79.9 °F - 68.0 °F 67% 29.94 in 10.0 mi West 9.2 mph 16.1 mph N/A   Scattered Clouds
6:55 PM 79.2 °F - 67.8 °F 68% 29.93 in 10.0 mi West 8.1 mph - N/A   Scattered Clouds
6:56 PM 79.0 °F - 67.8 °F 69% 29.93 in 10.0 mi West 8.1 mph - N/A   Scattered Clouds
7:19 PM 77.9 °F - 67.8 °F 71% 29.92 in 10.0 mi West 6.9 mph - N/A   Scattered Clouds
7:36 PM 77.4 °F - 68.0 °F 73% 29.92 in 10.0 mi West 5.8 mph - N/A   Mostly Cloudy
7:55 PM 76.6 °F - 67.6 °F 74% 29.91 in 10.0 mi WSW 5.8 mph - N/A   Mostly Cloudy
7:56 PM 76.6 °F - 67.6 °F 74% 29.91 in 10.0 mi WSW 4.6 mph - N/A   Mostly Cloudy
8:15 PM 76.1 °F - 67.3 °F 74% 29.91 in 10.0 mi NW 5.8 mph - N/A   Mostly Cloudy
8:16 PM 76.1 °F - 67.3 °F 74% 29.91 in 10.0 mi NW 5.8 mph - N/A   Mostly Cloudy
8:35 PM 74.5 °F - 68.0 °F 80% 29.90 in 10.0 mi NNW 3.5 mph - N/A   Scattered Clouds
8:58 PM 73.4 °F - 68.0 °F 83% 29.91 in 10.0 mi Calm Calm - N/A   Clear
9:16 PM 73.0 °F - 68.0 °F 84% 29.92 in 10.0 mi NNW 3.5 mph - N/A   Mostly Cloudy
9:35 PM 73.4 °F - 68.2 °F 84% 29.93 in 10.0 mi NW 3.5 mph - N/A   Overcast
9:36 PM 73.4 °F - 68.0 °F 83% 29.93 in 10.0 mi NW 3.5 mph - N/A   Overcast
9:55 PM 73.0 °F - 68.2 °F 85% 29.94 in 10.0 mi WNW 3.5 mph - N/A   Overcast
10:19 PM 73.0 °F - 68.0 °F 84% 29.94 in 10.0 mi NNW 4.6 mph - N/A   Overcast
10:37 PM 72.7 °F - 68.0 °F 85% 29.94 in 10.0 mi NNW 3.5 mph - N/A   Overcast
10:55 PM 72.5 °F - 68.2 °F 86% 29.95 in 10.0 mi NW 3.5 mph - N/A   Overcast
10:56 PM 72.5 °F - 68.2 °F 86% 29.95 in 10.0 mi NW 4.6 mph - N/A   Overcast
11:15 PM 72.5 °F - 68.0 °F 86% 29.96 in 10.0 mi NW 4.6 mph - N/A   Overcast
11:16 PM 72.5 °F - 68.0 °F 86% 29.96 in 10.0 mi NW 4.6 mph - N/A   Overcast
11:35 PM 72.0 °F - 68.2 °F 88% 29.96 in 10.0 mi NNW 4.6 mph - N/A   Overcast
11:40 PM 71.8 °F - 68.2 °F 88% 29.96 in 10.0 mi NNW 5.8 mph - N/A   Overcast
11:58 PM 71.8 °F - 67.8 °F 87% 29.96 in 10.0 mi NNW 6.9 mph - N/A   Overcast